Date String (YYYY-MM-DD hh:mm:ss) UTC,Instrument flags,absolute air pressure of the measurement (hPa),sample flow rate (lpm),inlet stack bypass flow (lpm),air temperature of the measurement (°C),ambient temperature measured by the external sensor (°C),aerosol sample conditioner tube jacket temperature (°C),OPC LED temperature (°C),internal box temperature (°C),relative humidity of the measurement (%),span deviation,mass concentration of particles derived from Lorenz-Mie calculation of OPC scattering (μg/m³),mass concentration of particles derived from Lorenz-Mie calculation of OPC scattering (μg/m³),mass concentration of particles derived from Lorenz-Mie calculation of OPC scattering (μg/m³)
DateTimeUTC,F1_M11,P_M11,Q1_M11,Q2_M11,T1_M11,T2_M11,T3_M11,T4_M11,T5_M11,U1_M11,ZSPAN_M11,X0_M11,X2_M11,X1_M11
2024-04-19 13:00:00,SystemResetWarning,0832.5,5.01,000.00,019.7,019.1,000.0,028.2,021.5,025.0,0000.0,0008.47,0005.56,0005.18
2024-04-19 13:01:00,SystemResetWarning,0832.6,5.00,000.00,019.7,019.1,000.0,028.2,021.5,025.0,0000.0,0008.22,0005.54,0005.19
2024-04-19 13:02:00,SystemResetWarning,0832.5,4.98,000.00,019.7,019.1,000.0,028.2,021.5,025.0,0000.0,0008.18,0005.54,0005.19
2024-04-19 13:03:00,SystemResetWarning,0832.5,5.00,000.00,019.7,019.1,000.0,028.2,021.5,025.0,0000.0,0008.84,0005.53,0005.20
2024-04-19 13:04:00,SystemResetWarning,0832.5,5.01,000.00,019.7,019.1,000.0,028.2,021.5,025.0,0000.0,0008.84,0005.52,0005.21
2024-04-19 13:05:00,SystemResetWarning,0832.6,5.01,000.00,019.7,019.1,000.0,028.2,021.5,025.0,0000.0,0008.92,0005.55,0005.21
2024-04-19 13:06:00,SystemResetWarning,0832.6,5.01,000.00,019.7,019.1,000.0,028.2,021.5,025.0,0000.0,0008.98,0005.55,0005.21
2024-04-19 13:07:00,SystemResetWarning,0832.6,4.99,000.00,019.7,019.1,000.0,028.2,021.5,025.1,0000.0,0009.00,0005.55,0005.20
2024-04-19 13:08:00,SystemResetWarning,0832.6,4.99,000.00,019.7,019.1,000.0,028.2,021.5,025.9,0000.0,0008.86,0005.52,0005.19
2024-04-19 13:09:00,SystemResetWarning,0832.7,5.00,000.00,019.7,019.1,000.0,028.2,021.5,025.4,0000.0,0008.81,0005.52,0005.20
2024-04-19 13:10:00,SystemResetWarning,0832.6,5.01,000.00,019.7,019.1,000.0,028.2,021.5,025.3,0000.0,0008.80,0005.50,0005.19
2024-04-19 13:11:00,SystemResetWarning,0832.7,5.01,000.00,019.7,019.1,000.0,028.2,021.5,025.2,0000.0,0008.55,0005.50,0005.18
2024-04-19 13:12:00,SystemResetWarning,0832.7,4.99,000.00,019.7,019.1,000.0,028.2,021.5,025.2,0000.0,0008.50,0005.53,0005.17
2024-04-19 13:13:00,SystemResetWarning,0832.7,4.99,000.00,019.7,019.1,000.0,028.2,021.5,025.1,0000.0,0008.43,0005.53,0005.16
2024-04-19 13:14:00,SystemResetWarning,0832.6,4.99,000.00,019.7,019.1,000.0,028.2,021.5,025.1,0000.0,0008.21,0005.52,0005.14
2024-04-19 13:15:00,SystemResetWarning,0832.6,5.00,000.00,019.7,019.1,000.0,028.2,021.5,025.1,0000.0,0008.24,0005.49,0005.12
2024-04-19 13:16:00,SystemResetWarning,0832.7,5.00,000.00,019.7,019.1,000.0,028.2,021.5,025.1,0000.0,0008.43,0005.48,0005.10
2024-04-19 13:17:00,SystemResetWarning,0832.7,5.01,000.00,019.7,019.1,000.0,028.2,021.5,025.2,0000.0,0008.43,0005.48,0005.08
2024-04-19 13:18:00,SystemResetWarning,0832.8,5.01,000.00,019.7,019.1,000.0,028.2,021.5,025.2,0000.0,0008.35,0005.44,0005.06
2024-04-19 13:19:00,SystemResetWarning,0832.7,5.00,000.00,019.7,019.1,000.0,028.2,021.5,025.2,0000.0,0008.37,0005.45,0005.04
2024-04-19 13:20:00,SystemResetWarning,0832.7,4.99,000.00,019.7,019.1,000.0,028.2,021.5,025.2,0000.0,0008.41,0005.45,0005.03
2024-04-19 13:21:00,SystemResetWarning,0832.7,4.99,000.00,019.7,019.1,000.0,028.2,021.5,025.2,0000.0,0008.43,0005.46,0005.03
2024-04-19 13:22:00,SystemResetWarning,0832.7,5.01,000.00,019.7,019.1,000.0,028.2,021.5,025.3,0000.0,0008.45,0005.47,0005.03
2024-04-19 13:23:00,SystemResetWarning,0832.7,5.01,000.00,019.7,019.1,000.0,028.2,021.5,025.2,0000.0,0008.38,0005.44,0005.04
2024-04-19 13:24:00,SystemResetWarning,0832.6,4.99,000.00,019.7,019.1,000.0,028.2,021.5,025.2,0000.0,0008.47,0005.44,0005.04
2024-04-19 13:25:00,SystemResetWarning,0832.7,5.00,000.00,019.7,019.1,000.0,028.2,021.5,025.2,0000.0,0008.32,0005.47,0005.05
2024-04-19 13:26:00,SystemResetWarning,0832.7,4.99,000.00,019.7,019.1,000.0,028.2,021.5,025.2,0000.0,0008.31,0005.51,0005.06
2024-04-19 13:27:00,SystemResetWarning,0832.6,5.00,000.00,019.7,019.1,000.0,028.2,021.5,025.2,0000.0,0008.07,0005.53,0005.07
2024-04-19 13:28:00,SystemResetWarning,0832.7,5.00,000.00,019.7,019.1,000.0,028.2,021.5,025.2,0000.0,0008.13,0005.55,0005.09
2024-04-19 13:29:00,SystemResetWarning,0832.7,5.00,000.00,019.7,019.1,000.0,028.2,021.5,025.2,0000.0,0008.88,0005.59,0005.11
2024-04-19 13:30:00,SystemResetWarning,0832.6,5.00,000.00,019.7,019.1,000.0,028.2,021.5,025.2,0000.0,0008.84,0005.59,0005.12
2024-04-19 13:31:00,SystemResetWarning,0832.6,4.99,000.00,019.7,019.1,000.0,028.2,021.5,025.2,0000.0,0008.82,0005.57,0005.12
2024-04-19 13:32:00,SystemResetWarning,0832.6,5.01,000.00,019.7,019.1,000.0,028.2,021.5,025.2,0000.0,0009.55,0005.58,0005.11
2024-04-19 13:33:00,SystemResetWarning,0832.7,4.99,000.00,019.7,019.1,000.0,028.2,021.4,025.2,0000.0,0009.73,0005.57,0005.12
2024-04-19 13:34:00,SystemResetWarning,0832.7,5.00,000.00,019.7,019.1,000.0,028.2,021.4,025.2,0000.0,0009.83,0005.60,0005.12
2024-04-19 13:35:00,SystemResetWarning,0832.7,5.01,000.00,019.7,019.1,000.0,028.2,021.5,025.2,0000.0,0009.72,0005.59,0005.13
2024-04-19 13:36:00,SystemResetWarning,0832.6,5.01,000.00,019.7,019.1,000.0,028.2,021.5,025.2,0000.0,0009.53,0005.56,0005.13
2024-04-19 13:37:00,SystemResetWarning,0832.7,5.00,000.00,019.7,019.1,000.0,028.2,021.5,025.2,0000.0,0010.14,0005.59,0005.14
2024-04-19 13:38:00,SystemResetWarning,0832.6,5.00,000.00,019.7,019.1,000.0,028.2,021.5,025.3,0000.0,0010.22,0005.61,0005.14
2024-04-19 13:39:00,SystemResetWarning,0832.6,5.01,000.00,019.7,019.1,000.0,028.2,021.5,025.3,0000.0,0010.45,0005.61,0005.15
2024-04-19 13:40:00,SystemResetWarning,0832.7,5.00,000.00,019.7,019.1,000.0,028.2,021.5,025.3,0000.0,0009.83,0005.61,0005.16
2024-04-19 13:41:00,SystemResetWarning,0832.7,5.00,000.00,019.7,019.1,000.0,028.2,021.5,025.3,0000.0,0009.76,0005.61,0005.17
2024-04-19 13:42:00,SystemResetWarning,0832.7,5.00,000.00,019.7,019.1,000.0,028.2,021.5,025.4,0000.0,0009.73,0005.64,0005.20
2024-04-19 13:43:00,SystemResetWarning,0832.7,4.99,000.00,019.7,019.1,000.0,028.2,021.4,026.1,0000.0,0008.96,0005.63,0005.21
2024-04-19 13:44:00,SystemResetWarning,0832.7,5.00,000.00,019.7,019.1,000.0,028.2,021.5,025.7,0000.0,0008.75,0005.62,0005.21
2024-04-19 13:45:00,SystemResetWarning,0832.7,4.99,000.00,019.7,019.1,000.0,028.2,021.5,025.5,0000.0,0008.67,0005.59,0005.21
2024-04-19 13:46:00,SystemResetWarning,0832.7,4.99,000.00,019.7,019.1,000.0,028.2,021.5,025.5,0000.0,0008.63,0005.56,0005.20
2024-04-19 13:47:00,SystemResetWarning,0832.7,5.01,000.00,019.7,019.1,000.0,028.2,021.5,025.5,0000.0,0008.62,0005.54,0005.19
2024-04-19 13:48:00,SystemResetWarning,0832.7,5.00,000.00,019.7,019.1,000.0,028.2,021.5,025.5,0000.0,0008.04,0005.48,0005.17
2024-04-19 13:49:00,SystemResetWarning,0832.7,5.01,000.00,019.7,019.1,000.0,028.2,021.5,025.5,0000.0,0008.09,0005.46,0005.16
2024-04-19 13:50:00,SystemResetWarning,0832.7,5.00,000.00,019.7,019.1,000.0,028.2,021.4,025.5,0000.0,0007.77,0005.42,0005.13
2024-04-19 13:51:00,SystemResetWarning,0832.7,5.00,000.00,019.7,019.1,000.0,028.2,021.4,025.5,0000.0,0007.83,0005.40,0005.12
2024-04-19 13:52:00,SystemResetWarning,0832.7,4.99,000.00,019.7,019.1,000.0,028.2,021.4,025.5,0000.0,0007.87,0005.40,0005.10
2024-04-19 13:53:00,SystemResetWarning,0832.8,5.00,000.00,019.7,019.1,000.0,028.2,021.4,025.5,0000.0,0007.86,0005.35,0005.06
2024-04-19 13:54:00,SystemResetWarning,0832.7,5.00,000.00,019.7,019.1,000.0,028.2,021.4,025.6,0000.0,0007.85,0005.32,0005.03
2024-04-19 13:55:00,SystemResetWarning,0832.7,5.00,000.00,019.7,019.1,000.0,028.2,021.4,025.5,0000.0,0007.93,0005.30,0005.00
2024-04-19 13:56:00,SystemResetWarning,0832.8,5.00,000.00,019.7,019.1,000.0,028.2,021.4,025.5,0000.0,0008.13,0005.26,0004.97
2024-04-19 13:57:00,SystemResetWarning,0832.8,5.00,000.00,019.7,019.1,000.0,028.2,021.4,025.5,0000.0,0008.08,0005.22,0004.94
2024-04-19 13:58:00,SystemResetWarning,0832.7,5.00,000.00,019.7,019.1,000.0,028.2,021.5,025.5,0000.0,0008.14,0005.20,0004.91
2024-04-19 13:59:00,SystemResetWarning,0832.7,5.00,000.00,019.7,019.1,000.0,028.2,021.5,025.5,0000.0,0008.45,0005.19,0004.88
